Skip Page Navigation
NASA JPL Caltech
NASA Logo - Jet Propulsion Laboratory + View the NASA Portal
+ Near-Earth Object (NEO) Program
Search JPL
JPL Home Earth Solar System Stars & Galaxies Technology
JPL Solar System Dynamics
BODIES ORBITS EPHEMERIDES TOOLS PHYSICAL DATA DISCOVERY FAQ SITE MAP
JPL Small-Body Database Browser
Search: [ help ]  
(2013 LR6)
Classification: Apollo [NEO]          SPK-ID: 3639547
Ephemeris | Orbit Diagram | Orbital Elements | Physical Parameters | Close-Approach Data ]

[ show orbit diagram ]
Orbital Elements at Epoch 2457000.5 (2014-Dec-09.0) TDB
Reference: JPL 5 (heliocentric ecliptic J2000)
 Element Value Uncertainty (1-sigma)   Units 
e .5223785375312799 7.4372e-05  
a 2.015154923506733 0.00029925 AU
q .9624812416663276 6.9623e-06 AU
i 2.52696919153107 0.00066515 deg
node 76.45270028677278 0.00013951 deg
peri 213.399294904426 0.00055812 deg
M 180.1598505131224 0.040002 deg
tp 2457522.469637172227
(2016-May-13.96963717)
0.23237 JED
period 1044.867177424765
2.86
0.23275
0.0006372
d
yr
n .3445413998813467 7.6747e-05 deg/d
Q 3.067828605347139 0.00045558 AU
  Orbit Determination Parameters
   # obs. used (total)      60  
   data-arc span      1 day  
   first obs. used      2013-06-06  
   last obs. used      2013-06-07  
   planetary ephem.      DE431  
   SB-pert. ephem.      SB431-BIG16  
   condition code      5  
   fit RMS      .45249  
   data source      ORB  
   producer      Otto Matic  
   solution date      2014-Jun-13 18:07:12  

Additional Information
 Earth MOID = .00152129 AU 
 T_jup = 3.642 
[ show covariance matrix ]

Ephemeris | Orbit Diagram | Orbital Elements | Physical Parameters | Close-Approach Data ]

Physical Parameter Table
Parameter Symbol Value Units Sigma Reference Notes
absolute magnitude H 27.8 mag n/a MPO263326  

[ hide close-approach data ]
Close-Approach Data   ...sorted by Date/Time (TDB)
Date/Time (TDB) Time Uncertainty
(days_HH:MM)
Body Nominal Distance (AU) Minimum Distance (AU) Maximum Distance (AU) V-relative (km/s) V-infinity (km/s) JD (TDB) Time Uncertainty (minutes) Semi-major axis (km) Semi-minor axis (km) range-LOV angle (deg) N-sigma BP Orbit Ref. Reference Modified
2013-Jun-08 04:42 < 00:01 Earth 0.000742437584607973 0.000742134845346795 0.000742740311113243 9.88183557587356 9.51173077132088 2456451.695520598 0.0521167350135974 14.4414035165906 0.916734837361583 0.578117794881554 4745.55370526087 T 5 CATAB v2.0c-linF95 2014-Jun-13 18:07:15 2014-Jun-13 18:07
2013-Jun-08 13:16 < 00:01 Moon 0.00173626822096783 0.00173617877590906 0.00173635774886422 10.2648215331144 10.2629825003896 2456452.052797257 0.0867015246448397 23.3795520643607 2.73648603976948 -78.7737300274848 90112.0483835822 T 5 CATAB v2.0c-linF95 2014-Jun-13 18:07:15 2014-Jun-13 18:07
2045-Mar-24 10:02 1_19:15 Mars 0.0865372041232319 0.0284957285136474 0.167911286131837 12.7355698675826 12.7353100973558 2468063.918365390 2595.19006995207 3983723.87600677 477.676090568523 18.8616010647987 8147.46784543701 T 5 CATAB v2.0c-linF95 2014-Jun-13 18:07:15 2014-Jun-13 18:07
2053-Aug-30 16:24 2_18:49 Earth 0.128016072817465 0.0462893617290105 0.218522005331051 13.0149792584357 13.0133799542989 2471145.183631430 4009.3778664344 4071043.92769567 321.486171127456 17.4365436326671 13540.1537347537 T 5 CATAB v2.0c-linF95 2014-Jun-13 18:07:15 2014-Jun-13 18:07
2056-May-03 14:14 1_03:10 Earth 0.440228843437502 0.349180099845216 0.530708968904812 22.5979462541913 22.5976784191072 2472122.092974305 1629.56147953364 4451443.00905474 57.4641715052915 -1.09576248274318 19545.1562131721 T 5 CATAB v2.0c-linF95 2014-Jun-13 18:07:15 2014-Jun-13 18:07
2073-Sep-13 00:59 09:00 Earth 0.29580667000579 0.272599034554498 0.318920435006194 18.4248711434806 18.4243822596239 2478463.540904194 539.797129438485 1107688.11789025 364.593535051327 7.88705829359094 14233.9762830928 T 5 CATAB v2.0c-linF95 2014-Jun-13 18:07:15 2014-Jun-13 18:07
2076-May-12 15:03 04:29 Earth 0.27421189721218 0.262906824781088 0.28547808289795 17.8172875981885 17.8167422283451 2479436.127091848 269.433244785937 530019.182468568 60.6621119081805 -0.590995705927577 5808.38264343014 T 5 CATAB v2.0c-linF95 2014-Jun-13 18:07:15 2014-Jun-13 18:07
2087-Jul-29 10:56 20:04 Mars 0.0671726185063931 0.044438149286693 0.0931077484639671 10.5222924986791 10.5218874456376 2483530.955651462 1204.24761966155 1238750.40026136 565.89666254856 27.852390805209 7486.16956178705 T 5 CATAB v2.0c-linF95 2014-Jun-13 18:07:15 2014-Jun-13 18:07
2093-Sep-19 08:24 18:37 Earth 0.414363557668664 0.35432152821078 0.474204717763113 21.8200417276664 21.8197470290075 2485774.850330632 1116.89288985082 2945215.78967601 376.194591740131 5.80791838042218 14833.012165891 T 5 CATAB v2.0c-linF95 2014-Jun-13 18:07:15 2014-Jun-13 18:07
2096-May-20 02:14 1_14:37 Earth 0.165881346188024 0.0941069741289062 0.233870884839056 14.5863192408691 14.5852179919738 2486748.592728827 2316.7536873969 3048216.80755348 43.4961360795062 -0.976684935645559 7580.56640271594 T 5 CATAB v2.0c-linF95 2014-Jun-13 18:07:15 2014-Jun-13 18:07
2111-Jan-12 07:25 2_04:44 Mars 0.0784605301648223 0.0278401900567341 0.162187751800641 10.0576023073481 10.0572395064759 2492097.808939992 3163.64328874595 3589953.32116058 453.027594128328 -21.2387354944827 8395.58769731271 T 5 CATAB v2.0c-linF95 2014-Jun-13 18:07:15 2014-Jun-13 18:07
Ephemeris | Orbit Diagram | Orbital Elements | Physical Parameters | Close-Approach Data ]
ABOUT SSD CREDITS/AWARDS PRIVACY/COPYRIGHT GLOSSARY LINKS
FirstGov 2014-Oct-25 19:45 UT
(server date/time)  
NASA Home Page
Site Manager:   Donald K. Yeomans
Webmaster  Alan B. Chamberlin